2023-030C (55838 NORAD) Tracking and Keplerian Element Data

This shows tracking and keplerian element data for the satellite.

Feedback or suggestion? Click here.




ElementValue
Catalog55838
Name2023-030C
Epoch Orbit230
Epoch Day85.11398367
Epoch Year2023
RAAN93.8243
Inclination99.006
Eccentricity0.0087771
Argument of Perigee358.0359
Mean Anonmoly2.0462
Mean Motion14.21266049
Decay Rate5.82E-06
L11 55838U 23030C 23085.11398367 .00000582 00000+0 27755-3 0 9996
L22 55838 99.0060 93.8243 0087771 358.0359 2.0462 14.21266049 2301



Live tracking and technical data element details for 2023-030C (NORAD 55838). 2023-030C can be tracked NOW for your location showing map with azimuth and elevation plus other details from your city location.







IsCatalogInMostPopularTable: catalog: 55838, numindb: 6
Update: records affected: 1



GetName: 55838 2023-030C

Hit Count: updated at: Tue, 06 Jun 2023 02:26:47 GMT